www.pogodaiklimat.ru

Погода и климат >> Архив погоды >> Казахстан >> Кусмурын


ПОГОДА в Кусмурыне

  • Прогноз погоды в Кусмурыне
  • Монитор погоды в Кусмурыне
  • Климат города

АРХИВ ПОГОДЫ в Кусмурыне

Время (UTC), дата Ветер
(напр.,м/с)
 
Видим.   Явления Облачность Т
(С)
Тd
(С)
f
(%)
Тe
(С)
Тes
(С)
Комфортность P
(гПа)
Po
(гПа)
Тmin
(С)
Tmax
(С)
R
(мм)
R24
(мм)
S
(см)
06 6.12 штиль 0 20 км 4/0
[Ac lent Ci fib]
-15.4 -18.1 80 -15 -15 1035.7 1020.7 -20.4
09 6.12 С 1 20 км 3/0
[Ci fib]
-11.2 -14.7 75 -13 -12 1034.9 1020.1
12 6.12 С 1 20 км 6/0
[Cs]
-11.6 -14.4 80 -14 -14 1034.2 1019.4
15 6.12 штиль 0 20 км 6/0
[Cs]
-15.2 -17.2 85 -15 -15 1033.9 1018.9 -10.6
18 6.12 штиль 0 20 км ясно -16.1 -17.4 90 -16 -16 1033.5 1018.5 -10.6
21 6.12 штиль 0 20 км ясно -17.1 -19.0 85 -17 -17 1033.1 1018.0
00 7.12 С 1 20 км ясно -14.8 -19.1 70 -17 -17 1031.7 1016.7
03 7.12 штиль 0 20 км ясно -18.6 -20.5 85 -19 -19 1032.4 1017.3
06 7.12 С 1 20 км ясно -13.7 -18.0 70 -16 -15 1031.2 1016.3 -19.0
09 7.12 С 2 20 км ясно -11.1 -16.4 65 -16 -15 1029.7 1015.1
12 7.12 С 2 20 км 1/0
[Ci fib]
-13.3 -17.6 70 -18 -18 1029.3 1014.5
15 7.12 С 2 20 км ясно -16.6 -19.2 80 -22 -22 1028.9 1013.9 -10.4
18 7.12 С 2 20 км ясно -17.7 -20.3 80 -23 -23 1028.7 1013.6 -10.4
21 7.12 СВ 1 20 км ясно -19.6 -22.9 75 -23 -23 1028.5 1013.3
00 8.12 штиль 0 20 км ясно -18.8 -22.9 70 -19 -19 1027.4 1012.4
03 8.12 штиль 0 20 км 3/0
[Ci fib]
-20.0 -23.3 75 -20 -20 1027.8 1012.6 14
06 8.12 СВ 2 50 км 3/0
[Ci fib]
-14.7 -19.8 65 -20 -19 1028.5 1013.5 -20.8
09 8.12 СВ 2 50 км 3/0
[Ci]
-11.8 -18.0 60 -16 -15 1027.5 1012.8
12 8.12 СВ 1 20 км 3/0
[Ci]
-14.7 -19.0 70 -17 -17 1027.4 1012.5
15 8.12 штиль 0 20 км ясно -20.6 -23.9 75 -21 -21 1028.5 1013.3 -11.6
18 8.12 штиль 0 20 км ясно -18.2 -20.1 85 -18 -18 1027.9 1012.8 -11.6
21 8.12 З 1 20 км ясно -20.1 -22.0 85 -23 -23 1028.4 1013.3
00 9.12 СВ 1 20 км ясно -23.6 -25.5 84 -27 -27 1027.4 1012.0
03 9.12 штиль 0 20 км ясно -25.2 -27.0 85 -25 -25 1028.8 1013.3
06 9.12 С 1 50 км ясно -21.2 -23.7 80 -24 -23 1027.5 1012.3 -25.3
09 9.12 С 1 20 км ясно -16.1 -19.5 75 -19 -18 1026.9 1012.0
12 9.12 С 1 20 км 3/0
[Ci fib]
-19.8 -22.4 80 -23 -23 1026.8 1011.7
15 9.12 СЗ 1 20 км 2 балла -24.6 -27.0 80 -28 -28 1028.7 1013.3 -16.1
18 9.12 С 1 20 км 3/0
[Ci fib]
-23.4 -25.2 85 -27 -27 1027.1 1011.7 -16.1
21 9.12 СВ 2 20 км 2 балла -23.5 -26.0 80 -30 -30 1027.3 1012.0
00 10.12 С 1 20 км 1/0
[Ci fib]
-24.5 -27.0 80 -28 -28 1026.9 1011.5
03 10.12 С 1 20 км ясно -26.0 -28.4 80 -30 -30 1028.8 1013.3
06 10.12 С 1 20 км 3/0
[Ci fib]
-22.4 -24.9 80 -26 -25 1027.4 1012.1 -27.4
09 10.12 штиль 0 20 км 2 балла -18.1 -21.4 75 -18 -17 1028.3 1013.3
12 10.12 штиль 0 20 км 3/0
[Ci fib]
-18.1 -22.2 70 -18 -18 1028.0 1012.9
15 10.12 штиль 0 20 км 2 балла -22.0 -24.5 80 -22 -22 1030.0 1014.7 -17.2
18 10.12 ЮВ 2 20 км 1/0
[Ci fib]
-24.4 -26.9 80 -31 -31 опасность
обморожения
1029.3 1013.8 -17.2
21 10.12 штиль 0 20 км ясно -25.8 -28.2 80 -26 -26 1030.2 1014.7
00 11.12 ЮВ 1 20 км ясно -24.5 -26.3 85 -28 -28 1030.3 1014.8
03 11.12 ЮВ 2 20 км 2 балла -24.6 -27.0 80 -31 -31 опасность
обморожения
1031.5 1016.0
06 11.12 В 2 20 км 3/0
[Ci fib]
-20.8 -23.3 80 -27 -26 1030.8 1015.6 -26.1
09 11.12 ЮВ 1 20 км 4 балла -14.9 -20.0 65 -17 -17 1030.9 1016.0
12 11.12 ЮВ 2 20 км 4/0
[Ac lent Ci fib]
-15.2 -20.3 65 -20 -20 1031.1 1016.1
15 11.12 ЮВ 1 20 км 4 балла -18.8 -22.1 75 -22 -22 1032.4 1017.3 -12.1
18 11.12 Ю 1 20 км 4/0
[Ci fib]
-20.3 -22.8 80 -23 -23 1031.9 1016.7 -12.1
21 11.12 ЮВ 1 20 км 4 балла -21.6 -24.1 80 -25 -25 1032.6 1017.3
00 12.12 Ю 1 20 км ясно -21.2 -23.0 85 -24 -24 1032.8 1017.5
03 12.12 ЮВ 2 20 км ясно -21.2 -23.0 85 -27 -27 1034.0 1018.7
06 12.12 ЮВ 1 20 км 4/0
[Ci fib]
-19.0 -21.6 80 -22 -21 1033.3 1018.1 -21.8
09 12.12 ЮВ 2 20 км 2 балла -14.5 -17.9 75 -19 -19 1033.6 1018.7
12 12.12 ЮВ 2 20 км 9/6 1000 м
[Sc Cs]
-14.6 -18.1 75 -20 -20 1032.5 1017.5
15 12.12 Ю 1 1000 м дымка 10 баллов -12.1 -13.4 90 -14 -14 1033.4 1018.7 -11.8
18 12.12 ЮВ 1 1000 м дымка 10/10 300 м
[St]
-11.8 -14.9 78 -14 -14 1032.1 1017.3
21 12.12 Ю 1 20 км 3/0
[Ci fib]
-17.8 -19.0 90 -21 -21 1032.5 1017.4
00 13.12 ЮВ 2 20 км 3/0
[Ci fib]
-18.9 -20.8 85 -25 -25 1032.2 1017.0

 

Местоположение метеостанции Кусмурын (Костанайская область, Казахстан): широта 52.47 долгота 64.67 высота над уровнем моря 110 м.

В архиве по умолчанию представлена погода в Кусмурыне за последнюю неделю. Архивные данные за месяц целиком и за предыдущие месяцы, начиная с января 2011 года, Вы можете получить, выбрав интересующий диапазон дат из раскрывающегося списка и нажав кнопку "Ввод!".


*Определитесь, кто Вы:
робот инопланетянин человек

Внимание! Время в таблицах - всемирное. Для получения местного времени необходимо прибавить поправку, которая в Кусмурыне равна 5 ч.

Смотрите также архив погоды в соседних городах и на ближайших метеорологических станциях:

Погода в Карасу (Костанайская область, Казахстан) (61 км)
Погода в Железнодорожной (Костанайская область, Казахстан) (80 км)
Погода в Диевской (Костанайская область, Казахстан) (85 км)
Погода в Костанае 2 (Костанайская область, Казахстан) (108 км)
Погода в Караменды (Костанайская область, Казахстан) (109 км)
Погода в Костанае (Костанайская область, Казахстан) (109 км)
Погода в Сарыколе (Костанайская область, Казахстан) (111 км)
Погода в Рудном (Костанайская область, Казахстан) (118 км)
Погода в Есиле (Акмолинская область, Казахстан) (131 км)
Погода в Тоболе (Костанайская область, Казахстан) (142 км)

Пояснения к столбцам:

Ветер - указаны скорость ветра в м/с - средняя за 10 мин, порывы в срок и между сроками (в фигурных скобках) и направление, откуда дует ветер: С - северный, СВ - северо-восточный, В - восточный, ЮВ - юго-восточный, Ю - южный, ЮЗ - юго-западный, З - западный, СЗ - северо-западный.
Видимость - горизонтальная дальность видимости в метрах или километрах. При видимости от 1 до 10 км при отсутствии осадков обычно наблюдается дымка, при ухудшении видимости до 1 км и менее - туман. В сухую погоду видимость может ухудшаться дымом, пылью или мглою.
Явления - указаны атмосферные явления, наблюдавшиеся в срок или в последний час перед сроком; фигурными скобками обозначены явления, наблюдавшиеся между сроками (за 1-3 часа до срока); квадратными скобками обозначены град или гололедные отложения с указанием их диаметра в мм.
Облачность - указаны через наклонную черту общая и нижняя облачность в баллах и высота нижней границы облаков в метрах; квадратными скобками обозначены формы облаков: Ci - перистые, Cs - перисто-слоистые, Cc - перисто-кучевые, Ac - высококучевые, As - высокослоистые, Sc - слоисто-кучевые, Ns - слоисто-дождевые, Cu - кучевые, Cb - кучево-дождевые. Подробнее классификацию облаков см. в Атласе облаков (PDF).
T - Температура воздуха - температура, измеренная на высоте 2 м над землей.
Td - Температура точки росы - температура, при понижении до которой содержащийся в воздухе водяной пар достигнет насыщения.
f - Относительная влажность воздуха - влажноcть воздуха, измеренная на высоте 2 м над землей.
Te - Эффективная температура - температура, которую ощущает одетый по сезону человек в тени. Характеристика душности погоды. При расчете учитывается влияние влажности воздуха и скорости ветра на теплоощущения человека.
Tes - Эффективная температура на солнце - температура, которую ощущает человек, с поправкой на солнечный нагрев. Характеристика знойности погоды. Зависит от высоты солнца над горизонтом, облачности и скорости ветра. Ночью, в пасмурную погоду, а также при ветре 12 м/с и более поправка равна нулю.
P - Атмосферное давление - приведенное к уровню моря атмосферное давление.
Po - Атмосферное давление - измеренное на уровне метеостанции атмосферное давление.
Tmin - Минимальная температура - минимум температуры воздуха на высоте 2 м над землей.
Tmax - Максимальная температура - максимум температуры воздуха на высоте 2 м над землей.
R - Количество осадков - Количество выпавших осадков за период времени, мм. При наведении курсора мыши на число - период времени, за который выпало указанное количество осадков.
R24 - Количество осадков - Количество выпавших осадков за 24 часа, мм.
S - Снежный покров - Высота снежного покрова, см. При наведении курсора мыши на число - состояние снежного покрова и степень покрытия местности в баллах.